Muskegon, MI

9:42 PM EDT on March 29, 2017 (GMT -0400)
Muskegon County

Weather History for KMKG - November, 2013

Change the Weather History Date:

Sunday, November 24, 2013

  Actual Average Record
Temperature  
Mean Temperature 25 °F 37 °F  
Max Temperature 30 °F 43 °F 62 °F (2001)
Min Temperature 19 °F 32 °F -8 °F (1950)
Degree Days  
Heating Degree Days 40 28  
Month to date heating degree days 549 569  
Since 1 July heating degree days 1057 1192  
Cooling Degree Days 0 0  
Month to date cooling degree days 0 0  
Year to date cooling degree days 626 566  
Moisture  
Dew Point 12 °F    
Average Humidity 61    
Maximum Humidity 73    
Minimum Humidity 49    
Precipitation  
Precipitation 0.02 in 0.11 in 1.04 in (2014)
Month to date precipitation 3.09 2.73  
Year to date precipitation 40.76 30.31  
Snow  
Snow 0.40 in 0.30 in 4.90 in (1991)
Month to date snowfall 0.7 3.7  
Since 1 July snowfall 0.7 3.9  
Since 1 September snowfall 0.7 3.9  
Snow Depth 1.00 in    
Sea Level Pressure  
Sea Level Pressure 30.57 in    
Wind  
Wind Speed 10 mph (NW)    
Max Wind Speed 26 mph    
Max Gust Speed 35 mph    
Visibility 7 miles    
Events Snow    
T = Trace of Precipitation, MM = Missing Value Source: NWS Daily Summary

Daily Weather History Graph

Daily Weather History Graph

Search for Another Location

Airport or City:

Trip Planner

Search our weather history database for the weather conditions in past years. The results will help you decide how hot, cold, wet, or windy it might be!

Date:

Astronomy

Nov. 24, 2013 Rise Set
Actual Time 7:49 AM EST 5:13 PM EST
Civil Twilight 7:17 AM EST 5:45 PM EST
Nautical Twilight 6:42 AM EST 6:20 PM EST
Astronomical Twilight 6:08 AM EST 6:54 PM EST
Moon 11:44 PM EST (11/24) 12:32 PM EST (11/24)
Length of Visible Light 10h 27m
Length of Day
9h 24m
Waning Gibbous, 61% of the Moon is Illuminated
Nov 24
Waning Gibbous
Nov 25
Last Quarter
Dec 2
New
Dec 9
First Quarter
Dec 17
Full

Hourly Weather History & Observations

Time (EST) Temp. Windchill Dew Point Humidity Pressure Visibility Wind Dir Wind Speed Gust Speed Precip Events Conditions
12:40 AM 19.4 °F 11.5 °F 12.2 °F 74% 30.59 in 3.0 mi NNE 5.8 mph - 0.00 in Snow Light Snow
12:47 AM 19.4 °F 10.4 °F 12.2 °F 74% 30.59 in 1.8 mi North 6.9 mph - 0.00 in Snow Light Snow
12:55 AM 19.0 °F 11.1 °F 12.0 °F 74% 30.63 in 1.8 mi North 5.8 mph - 0.00 in Snow Light Snow
1:28 AM 19.4 °F 10.4 °F 12.2 °F 74% 30.58 in 3.0 mi North 6.9 mph - 0.01 in Snow Light Snow
1:37 AM 19.4 °F 9.5 °F 12.2 °F 74% 30.57 in 5.0 mi North 8.1 mph - 0.01 in Snow Light Snow
1:52 AM 19.4 °F 12.8 °F 12.2 °F 74% 30.58 in 2.5 mi North 4.6 mph - 0.01 in Snow Light Snow
1:55 AM 19.0 °F 10.0 °F 12.9 °F 77% 30.62 in 2.5 mi North 6.9 mph - 0.01 in Snow Light Snow
2:08 AM 19.4 °F 11.5 °F 12.2 °F 74% 30.58 in 6.0 mi North 5.8 mph - 0.00 in Snow Light Snow
2:18 AM 19.4 °F 7.2 °F 12.2 °F 74% 30.58 in 6.0 mi North 11.5 mph - 0.00 in Snow Light Snow
2:29 AM 19.4 °F 6.6 °F 12.2 °F 74% 30.59 in 1.8 mi North 12.7 mph - 0.00 in Snow Light Snow
2:40 AM 19.4 °F 8.6 °F 12.2 °F 74% 30.59 in 3.0 mi North 9.2 mph 18.4 mph 0.01 in Snow Light Snow
2:55 AM 19.9 °F 8.6 °F 12.9 °F 74% 30.63 in 2.5 mi North 10.4 mph - 0.01 in Snow Light Snow
3:02 AM 19.4 °F 7.9 °F 12.2 °F 74% 30.59 in 5.0 mi NNW 10.4 mph - 0.00 in Snow Light Snow
3:17 AM 21.2 °F 10.1 °F 10.4 °F 63% 30.59 in 6.0 mi NW 10.4 mph - 0.00 in Snow Light Snow
3:48 AM 19.4 °F 6.6 °F 10.4 °F 68% 30.58 in 5.0 mi NW 12.7 mph 19.6 mph 0.00 in Snow Light Snow
3:55 AM 21.0 °F 9.3 °F 10.0 °F 63% 30.62 in 5.0 mi NW 11.5 mph 19.6 mph 0.00 in Snow Light Snow
4:20 AM 21.2 °F 11.7 °F 10.4 °F 63% 30.58 in 6.0 mi WNW 8.1 mph 18.4 mph 0.00 in Snow Light Snow
4:55 AM 21.0 °F 8.1 °F 9.0 °F 60% 30.61 in 9.0 mi NW 13.8 mph 20.7 mph 0.00 in Snow Light Snow
5:55 AM 19.9 °F 11.1 °F 12.9 °F 74% 30.62 in 6.0 mi North 6.9 mph - 0.00 in Snow Light Snow
6:55 AM 19.9 °F 12.1 °F 12.0 °F 71% 30.62 in 10.0 mi North 5.8 mph - 0.00 in   Overcast
7:55 AM 19.9 °F 13.4 °F 12.9 °F 74% 30.63 in 10.0 mi NNE 4.6 mph - N/A   Overcast
8:55 AM 21.0 °F 13.4 °F 12.0 °F 68% 30.64 in 6.0 mi NNE 5.8 mph - 0.00 in Snow Light Snow
9:55 AM 21.0 °F - 12.0 °F 68% 30.65 in 9.0 mi Calm Calm - 0.00 in Snow Light Snow
10:55 AM 21.9 °F - 12.0 °F 66% 30.65 in 9.0 mi Calm Calm - 0.00 in Snow Light Snow
11:55 AM 24.1 °F 14.4 °F 9.0 °F 53% 30.63 in 9.0 mi West 9.2 mph - 0.00 in   Overcast
12:55 PM 24.1 °F 13.1 °F 10.9 °F 57% 30.61 in 9.0 mi West 11.5 mph - 0.00 in Snow Light Snow
1:55 PM 24.1 °F 13.7 °F 10.0 °F 55% 30.58 in 10.0 mi West 10.4 mph - 0.00 in   Overcast
2:55 PM 24.1 °F 14.4 °F 10.9 °F 57% 30.57 in 10.0 mi West 9.2 mph - 0.00 in   Mostly Cloudy
3:55 PM 25.0 °F 16.3 °F 9.0 °F 51% 30.55 in 10.0 mi SW 8.1 mph - N/A   Mostly Cloudy
4:55 PM 23.0 °F 14.7 °F 10.0 °F 58% 30.53 in 10.0 mi SW 6.9 mph - N/A   Scattered Clouds
5:55 PM 24.1 °F 14.4 °F 10.0 °F 55% 30.49 in 10.0 mi SSW 9.2 mph - N/A   Scattered Clouds
6:55 PM 26.1 °F 14.5 °F 12.0 °F 55% 30.48 in 10.0 mi SW 13.8 mph 21.9 mph N/A   Mostly Cloudy
7:55 PM 27.0 °F 14.3 °F 12.9 °F 56% 30.44 in 10.0 mi SW 17.3 mph 24.2 mph N/A   Mostly Cloudy
8:55 PM 28.9 °F 16.9 °F 12.0 °F 49% 30.40 in 10.0 mi SW 17.3 mph 27.6 mph N/A   Partly Cloudy
9:55 PM 30.0 °F 18.3 °F 15.1 °F 54% 30.37 in 10.0 mi SW 17.3 mph 28.8 mph N/A   Partly Cloudy
10:55 PM 30.0 °F 16.3 °F 14.0 °F 51% 30.35 in 10.0 mi SW 24.2 mph 31.1 mph N/A   Partly Cloudy
11:55 PM 30.0 °F 16.9 °F 15.1 °F 54% 30.34 in 10.0 mi SW 21.9 mph 31.1 mph N/A   Clear